Location: *
(10.0873°S, 112.4185°E)
Time: 12:29:55
(UTC+00:00)

Daily predictions for brighter satellites

Satellite Brightness Start Highest point End
(mag) Time Altitude Azimuth Time Altitude Azimuth Time Altitude Azimuth
Ariane H10 2.9 12:03:07 10° WNW 12:05:24 50° N 12:05:24 50° N
Meteor 1-25 Rocket 4.1 12:01:23 10° N 12:06:57 89° W 12:12:31 10° S
Meteor 1-10 Rocket 4.3 12:02:51 10° S 12:08:26 57° E 12:10:09 41° NE
ADEOS Rocket 4.3 12:04:45 10° SE 12:07:34 21° ESE 12:07:34 21° ESE
CZ-4B R/B 4.3 12:09:55 10° S 12:13:54 41° WSW 12:17:58 10° NNW
NOSS 3-4 (A) 4.5 12:09:57 10° N 12:17:43 42° ENE 12:25:43 10° SE
NOSS 3-4 (C) 4.4 12:10:03 10° N 12:17:44 42° ENE 12:25:40 10° SE
Landsat 7 3.6 12:13:46 10° SSE 12:18:29 82° ENE 12:19:41 51° N
Delta 142 4.5 12:14:25 10° WNW 12:18:48 52° SSW 12:22:18 21° SE
ATLAS 5 CENTAUR R/B 3.6 12:12:43 10° NW 12:19:43 53° WSW 12:27:08 10° S
deb Centaur AC-2 3.8 12:15:59 10° WSW 12:20:18 83° SSE 12:20:19 83° SE
Meteor 1-27 Rocket 4.1 12:18:31 10° S 12:23:51 46° ESE 12:23:51 46° ESE
Cosmos 1331 Rocket 3.9 12:21:17 10° SSW 12:26:33 88° W 12:27:19 66° N
CZ-4B R/B 3.1 12:24:37 10° SSE 12:29:53 65° E 12:29:53 65° E
Cosmos 1943 Rocket 4.1 12:41:52 10° SSE 12:43:36 17° SSE 12:43:36 17° SSE
Okean O Rocket 4.0 12:44:57 10° SSE 12:45:35 14° SSE 12:45:35 14° SSE
Cosmos 2278 Rocket 2.8 12:56:11 10° SSW 13:00:23 52° SSW 13:00:23 52° SSW
Milstar 3 Cent rocket 3.9 12:55:38 10° WSW 13:17:36 78° SSE 13:19:49 65° E
USA 267 4.3 13:25:26 35° WNW 13:25:26 35° WNW 13:30:44 10° WSW
H-2A ROCKET BODY 4.1 14:06:09 63° S 14:06:09 63° S 14:36:42 10° ESE
Centaur D-1AR AC-36 4.1 18:56:31 31° ENE 18:56:31 31° ENE 19:03:10 10° ENE
ATLAS 3B R/B 4.3 18:49:29 10° S 18:52:07 24° SSE 18:52:07 24° SSE
CZ-2C R/B 4.5 19:12:20 24° SSE 19:12:20 24° SSE 19:14:30 10° S
Cosmos 2322 Rocket 3.7 19:26:44 10° S 19:31:42 32° ESE 19:36:39 10° NE
Cosmos 2297 Rocket 3.9 19:33:05 23° NE 19:34:32 26° ENE 19:39:09 10° SE
Cosmos 1725 Rocket 4.3 19:31:00 10° S 19:37:15 62° E 19:38:30 52° NE
Skynet4D Del rocket 4.1 19:40:03 62° ENE 19:40:03 62° ENE 19:45:01 10° ESE
Hubble Space Telescope 3.4 19:43:14 15° S 19:43:14 15° S 19:44:29 10° SSE
Maqsat 3 4.2 19:47:48 67° N 19:47:49 67° N 19:57:50 10° E
SL-16 R/B 2.8 19:47:42 10° SSW 19:51:37 46° SSW 19:51:37 46° SSW
SL-16 R/B 2.4 19:49:31 10° S 19:55:32 67° WSW 19:55:32 67° WSW
ARIANE 5 R/B 3.5 19:57:09 38° N 19:57:36 39° N 20:16:22 10° ENE
USA 281 3.3 19:51:42 10° NNE 19:58:12 74° ESE 20:04:46 10° SSW
CZ-2C R/B 2.7 19:53:40 10° S 19:59:00 72° SW 19:59:00 72° SW
Palapa 6 Rocket 4.5 20:01:57 32° NE 20:01:57 32° NE 20:04:29 10° NE
SWIFT 3.7 20:07:32 29° S 20:08:11 30° SSE 20:11:48 10° ESE
Cosmos 1864 Rocket 4.5 20:02:02 10° SSW 20:08:14 59° W 20:08:47 57° WNW
BREEZE-M DEB (TANK) 4.3 20:16:22 12° SSE 20:16:22 12° SSE 20:16:34 10° SSE
Cosmos 2228 4.2 20:19:38 15° NNE 20:22:47 39° E 20:26:43 10° SSE
USA 234 4.1 20:20:14 10° S 20:25:58 33° SW 20:27:56 28° W
Meteor 2-15 4.3 20:20:51 10° SSW 20:26:55 67° W 20:32:11 14° N
Cosmos 1544 Rocket 3.3 20:26:42 56° NNW 20:27:31 76° W 20:31:51 10° S
Cosmos 1680 Rocket 4.1 20:23:42 10° S 20:28:57 60° ESE 20:34:09 10° NNE
Meteor 2-8 Rocket 4.3 20:23:22 10° S 20:29:28 88° W 20:35:30 10° N
Cosmos 2227 Rocket 3.1 20:24:44 12° N 20:29:37 47° ENE 20:35:01 10° SSE
Mugunghwa Rocket 4.2 20:29:58 21° WSW 20:35:01 73° NNW 20:42:58 10° NE
ARIANE 44L R/B 3.6 20:37:14 16° NE 20:37:14 16° NE 20:37:53 10° NE
Cosmos 2112 Rocket 4.5 20:34:25 10° S 20:39:44 64° ESE 20:45:00 10° NNE
Meteor 2-1 Rocket 4.2 20:39:03 18° NNW 20:43:17 70° W 20:49:02 10° S
Cosmos 921 Rocket 2.8 20:43:19 10° SSW 20:47:29 82° W 20:51:40 10° N
ERS-1 4.5 20:47:57 10° NNE 20:52:54 85° ESE 20:57:56 10° S
Atlas Centaur 2 1.0 20:51:41 31° W 20:53:04 54° NNW 20:56:38 10° NE
ARIANE 5 R/B 2.5 20:50:33 10° N 20:55:45 77° WNW 21:00:59 10° SSW
Cosmos 1809 Rocket 4.4 20:51:30 10° N 20:57:36 72° W 21:03:44 10° S
Cosmos 2360 Rocket 2.5 20:54:02 10° SW 20:59:19 41° WNW 21:04:35 10° N
Cosmos 1484 Rocket 4.1 21:01:38 20° W 21:01:38 20° W 21:03:55 10° SW
Spelda 4.1 20:58:24 21° WNW 21:01:22 49° N 21:19:26 10° ENE
Cosmos 1939 Rocket 2.6 20:57:47 10° N 21:01:36 79° WNW 21:05:25 10° SSW
Fermi 3.8 20:59:05 19° W 21:01:49 56° NNW 21:05:49 10° NE
Cosmos 1892 Rocket 4.5 21:00:51 10° SSW 21:04:38 28° W 21:07:52 13° NNW
Cosmos 1464 Rocket 4.5 20:58:44 10° S 21:04:50 63° E 21:10:51 10° NNE
Centaur D AC-29 3.3 21:02:53 10° SSW 21:05:24 21° SSE 21:09:35 10° E
ARIANE 5 R/B 3.3 21:03:12 10° N 21:05:30 16° NNE 21:10:11 10° ENE
Cosmos 1125 Rocket 4.3 21:02:32 19° NW 21:05:37 33° WSW 21:10:22 10° SSW
Cosmos 1238 Rocket 3.6 21:02:18 10° N 21:05:57 55° E 21:10:19 10° SSE
Cosmos 2219 Rocket 2.2 21:00:50 10° SSW 21:06:27 88° ESE 21:12:04 10° NNE
Lacrosse 5 rocket 1.1 21:04:02 10° SW 21:07:51 64° WNW 21:11:50 10° NNE
ARGOS 4.3 21:03:50 10° NNE 21:08:56 47° ESE 21:14:04 10° S
YAOGAN 11 4.2 21:05:04 10° SSE 21:09:21 74° ENE 21:13:35 10° N
Tsikada Rocket 4.1 21:07:44 10° N 21:13:56 84° E 21:20:16 10° S
Cosmos 2219 3.4 21:08:33 10° N 21:14:15 78° ENE 21:20:01 10° SSE
Cosmos 2322 Rocket 3.5 21:11:45 10° WSW 21:15:23 18° WNW 21:19:02 10° NW
FengYun 1-2 T 4.4 21:10:57 10° NNE 21:16:29 79° ESE 21:22:00 10° S
Cosmos 1606 Rocket 3.6 21:13:03 10° N 21:17:20 84° E 21:21:40 10° S
Cosmos 2297 Rocket 3.4 21:14:55 14° WNW 21:18:17 23° WSW 21:22:40 10° SSW
Aurora 2 Rocket 3.5 21:14:45 11° W 21:18:43 32° SSW 21:22:01 10° SE
SEDSat Delta rocket 3.7 21:15:05 14° WNW 21:19:28 67° SSW 21:25:19 10° SE
Cosmos 1726 Rocket 4.0 21:16:55 10° N 21:21:09 64° E 21:25:25 10° SSE
Cosmos 2333 Rocket 2.8 21:16:26 10° SW 21:21:25 32° WNW 21:26:26 10° NNW
COSMOS 2428 3.6 21:16:15 10° S 21:21:48 54° ESE 21:27:17 10° NNE
USA 276 2.4 21:22:09 13° NW 21:24:43 46° SW 21:27:38 10° SSE
Cosmos 724 4.2 21:24:55 10° NNW 21:30:39 82° WSW 21:36:25 10° SSE
Cosmos 2034 Rocket 4.4 21:24:46 10° S 21:31:08 72° E 21:37:29 10° N
ARIANE 5 R/B 4.4 21:10:29 10° W 21:33:05 37° NNW 21:37:28 10° NE
ARIANE 5 R/B 2.3 21:29:17 10° W 21:33:42 31° NNW 21:35:44 10° NE
Cosmos 2082 4.2 21:28:47 10° N 21:34:25 68° ENE 21:40:07 10° SSE
Intelsat 5-1 Rocket 2.8 21:36:20 10° SW 21:38:43 38° SSE 21:42:43 10° E
NOAA 12 4.1 21:34:25 10° N 21:39:36 68° WNW 21:44:50 10° SSW
SJ-12 4.1 21:36:14 10° N 21:40:08 49° W 21:44:04 10° SSW
H-2A R/B 3.0 21:36:27 10° NNW 21:40:29 25° W 21:44:39 10° SW
USA 229 DEB 4.2 21:36:49 10° SW 21:41:50 28° WNW 21:46:49 10° NNW
USA 229 4.1 21:36:51 10° SW 21:41:54 28° WNW 21:46:55 10° N
